Date String (YYYY-MM-DD hh:mm:ss) UTC,Instrument flags,Ambient pressure (hPa),Sample flow (lpm),Bypass flow (lpm),Sample temperature (°C),Ambient temperature (°C),ASC tube jacket temperature (°C),LED temperature (°C),Box temperature (°C),Sample RH (%),Span deviation,Mass concentration (μg/m³),Mass concentration (μg/m³),Mass concentration (μg/m³)
DateTimeUTC,F1_M11,P_M11,Q1_M11,Q2_M11,T1_M11,T2_M11,T3_M11,T4_M11,T5_M11,U1_M11,ZSPAN_M11,X0_M11,X2_M11,X1_M11
2021-11-20 13:00:00,,0826.7,5.00,0.00,26.2,25.3,00.0,35.2,28.0,10.1,0003.5,0014.52,0006.30,0005.02
2021-11-20 13:01:00,,0826.8,5.00,0.00,26.2,25.3,00.0,35.2,28.0,10.0,0003.7,0014.71,0006.37,0005.01
2021-11-20 13:02:00,,0826.9,5.00,0.00,26.2,25.3,00.0,35.2,28.0,10.1,0003.0,0015.68,0006.40,0005.01
2021-11-20 13:03:00,,0826.9,5.00,0.00,26.2,25.3,00.0,35.2,28.0,10.1,0003.3,0016.23,0006.41,0005.02
2021-11-20 13:04:00,,0827.2,4.99,0.00,26.2,25.3,00.0,35.2,28.0,10.1,0003.6,0016.79,0006.41,0005.02
2021-11-20 13:05:00,,0826.9,5.02,0.00,26.2,25.3,00.0,35.2,28.0,10.1,0003.1,0016.57,0006.46,0005.01
2021-11-20 13:06:00,,0826.8,5.00,0.00,26.2,25.3,00.0,35.2,28.0,10.1,0002.8,0017.58,0006.48,0005.01
2021-11-20 13:07:00,,0826.7,5.01,0.00,26.2,25.3,00.0,35.2,28.0,10.1,0001.6,0018.52,0006.46,0005.00
2021-11-20 13:08:00,,0826.7,4.99,0.00,26.2,25.3,00.0,35.2,28.0,10.0,0000.2,0019.11,0006.44,0004.97
2021-11-20 13:09:00,,0826.6,5.00,0.00,26.2,25.3,00.0,35.2,28.0,10.0,-000.1,0019.87,0006.54,0004.95
2021-11-20 13:10:00,,0826.7,5.01,0.00,26.2,25.3,00.0,35.2,28.0,09.9,0000.1,0020.63,0006.61,0004.95
2021-11-20 13:11:00,,0826.7,4.99,0.00,26.2,25.3,00.0,35.2,28.0,09.9,0000.7,0020.91,0006.67,0004.95
2021-11-20 13:12:00,,0826.7,5.00,0.00,26.2,25.3,00.0,35.2,28.0,09.9,0001.2,0020.89,0006.58,0004.96
2021-11-20 13:13:00,,0826.9,5.00,0.00,26.2,25.3,00.0,35.2,28.0,09.9,0001.5,0020.29,0006.51,0004.96
2021-11-20 13:14:00,,0826.8,4.99,0.00,26.2,25.3,00.0,35.2,28.0,09.9,0001.3,0020.59,0006.56,0004.97
2021-11-20 13:15:00,,0826.8,5.00,0.00,26.2,25.3,00.0,35.2,28.0,09.9,0001.1,0020.51,0006.62,0004.98
2021-11-20 13:16:00,,0826.8,5.01,0.00,26.2,25.3,00.0,35.2,28.0,09.8,0000.7,0021.32,0006.62,0004.99
2021-11-20 13:17:00,,0826.8,5.00,0.00,26.2,25.3,00.0,35.2,28.0,09.5,-000.6,0020.43,0006.68,0005.02
2021-11-20 13:18:00,,0826.8,5.00,0.00,26.2,25.3,00.0,35.2,28.0,09.4,-000.4,0020.84,0006.75,0005.09
2021-11-20 13:19:00,,0826.8,4.99,0.00,26.2,25.3,00.0,35.2,28.0,09.4,0000.4,0021.78,0006.76,0005.16
2021-11-20 13:20:00,,0826.8,5.00,0.00,26.2,25.3,00.0,35.2,28.0,09.4,0000.2,0020.99,0006.75,0005.22
2021-11-20 13:21:00,,0826.8,5.01,0.00,26.2,25.3,00.0,35.2,28.0,09.4,0000.4,0019.94,0006.78,0005.27
2021-11-20 13:22:00,,0826.9,5.00,0.00,26.2,25.3,00.0,35.2,28.0,09.5,0001.0,0019.64,0006.83,0005.35
2021-11-20 13:23:00,,0827.0,4.99,0.00,26.2,25.3,00.0,35.2,28.0,09.6,0001.4,0020.41,0006.98,0005.42
2021-11-20 13:24:00,,0826.8,5.01,0.00,26.2,25.3,00.0,35.2,28.0,09.6,0001.4,0020.73,0007.08,0005.48
2021-11-20 13:25:00,,0826.9,4.99,0.00,26.2,25.3,00.0,35.2,28.0,09.6,0001.0,0021.14,0007.14,0005.54
2021-11-20 13:26:00,,0826.8,5.00,0.00,26.2,25.3,00.0,35.2,28.0,09.6,0001.0,0021.08,0007.16,0005.59
2021-11-20 13:27:00,,0826.8,5.00,0.00,26.2,25.3,00.0,35.2,28.0,09.6,0001.1,0020.88,0007.19,0005.65
2021-11-20 13:28:00,,0826.8,5.00,0.00,26.2,25.2,00.0,35.2,27.9,09.6,0001.8,0021.84,0007.28,0005.70
2021-11-20 13:29:00,,0826.8,5.00,0.00,26.2,25.2,00.0,35.2,27.9,09.6,0002.7,0021.42,0007.28,0005.70
2021-11-20 13:30:00,,0826.8,4.99,0.00,26.2,25.2,00.0,35.2,27.9,09.6,0003.6,0020.14,0007.34,0005.69
2021-11-20 13:31:00,,0826.9,4.99,0.00,26.2,25.2,00.0,35.2,27.9,09.6,0004.5,0019.73,0007.35,0005.69
2021-11-20 13:32:00,,0826.8,5.01,0.00,26.2,25.2,00.0,35.2,27.9,09.6,0004.5,0020.00,0007.31,0005.69
2021-11-20 13:33:00,,0826.9,4.99,0.00,26.1,25.2,00.0,35.2,27.9,09.8,0004.3,0019.70,0007.25,0005.67
2021-11-20 13:34:00,,0826.9,5.00,0.00,26.1,25.2,00.0,35.1,27.9,10.0,0005.0,0019.53,0007.16,0005.60
2021-11-20 13:35:00,,0826.9,4.99,0.00,26.1,25.2,00.0,35.1,27.9,10.0,0005.7,0018.72,0007.03,0005.53
2021-11-20 13:36:00,,0826.9,5.01,0.00,26.1,25.2,00.0,35.1,27.8,10.0,0005.5,0017.93,0006.98,0005.47
2021-11-20 13:37:00,,0826.9,5.01,0.00,26.1,25.2,00.0,35.1,27.8,09.9,0005.6,0017.56,0006.91,0005.42
2021-11-20 13:38:00,,0826.8,4.99,0.00,26.1,25.2,00.0,35.1,27.9,09.9,0005.8,0016.80,0006.83,0005.36
2021-11-20 13:39:00,,0826.9,5.01,0.00,26.1,25.2,00.0,35.1,27.9,09.8,0005.9,0015.86,0006.72,0005.32
2021-11-20 13:40:00,,0826.9,5.01,0.00,26.1,25.2,00.0,35.1,27.9,09.8,0005.7,0015.35,0006.63,0005.28
2021-11-20 13:41:00,,0826.8,5.00,0.00,26.1,25.1,00.0,35.1,27.8,09.8,0005.4,0015.27,0006.63,0005.25
2021-11-20 13:42:00,,0826.8,4.99,0.00,26.1,25.1,00.0,35.1,27.9,09.8,0004.9,0015.37,0006.60,0005.23
2021-11-20 13:43:00,,0826.9,5.00,0.00,26.1,25.2,00.0,35.1,27.8,09.8,0005.1,0015.15,0006.58,0005.20
2021-11-20 13:44:00,,0826.9,5.00,0.00,26.1,25.1,00.0,35.1,27.8,09.8,0005.3,0015.14,0006.57,0005.18
2021-11-20 13:45:00,,0826.9,5.01,0.00,26.1,25.1,00.0,35.1,27.8,09.8,0005.0,0014.40,0006.52,0005.18
2021-11-20 13:46:00,,0826.9,4.98,0.00,26.1,25.1,00.0,35.1,27.8,09.8,0004.8,0014.10,0006.54,0005.19
2021-11-20 13:47:00,,0826.9,5.01,0.00,26.1,25.1,00.0,35.1,27.8,09.8,0005.1,0015.07,0006.55,0005.22
2021-11-20 13:48:00,,0827.2,4.99,0.00,26.1,25.1,00.0,35.1,27.8,09.8,0005.2,0015.28,0006.54,0005.23
2021-11-20 13:49:00,,0827.1,5.01,0.00,26.0,25.1,00.0,35.1,27.8,09.8,0005.1,0015.51,0006.55,0005.24
2021-11-20 13:50:00,,0827.0,5.01,0.00,26.1,25.1,00.0,35.1,27.8,09.8,0004.7,0015.89,0006.54,0005.24
2021-11-20 13:51:00,,0827.3,4.99,0.00,26.0,25.1,00.0,35.1,27.8,09.8,0004.7,0015.56,0006.50,0005.22
2021-11-20 13:52:00,,0827.2,5.00,0.00,26.1,25.1,00.0,35.1,27.8,09.8,0005.5,0016.99,0006.43,0005.20
2021-11-20 13:53:00,,0827.1,5.00,0.00,26.0,25.1,00.0,35.1,27.8,09.8,0005.9,0017.56,0006.40,0005.18
2021-11-20 13:54:00,,0827.2,4.98,0.00,26.0,25.1,00.0,35.0,27.8,09.8,0005.9,0017.25,0006.35,0005.16
2021-11-20 13:55:00,,0827.2,5.02,0.00,26.0,25.1,00.0,35.0,27.8,09.8,0005.7,0017.27,0006.25,0005.13
2021-11-20 13:56:00,,0827.1,4.99,0.00,26.0,25.1,00.0,35.0,27.8,09.8,0004.8,0018.02,0006.32,0005.13
2021-11-20 13:57:00,,0827.1,5.01,0.00,26.0,25.1,00.0,35.0,27.8,09.8,0004.0,0018.41,0006.33,0005.13
2021-11-20 13:58:00,,0827.1,4.99,0.00,26.0,25.1,00.0,35.0,27.8,09.9,0003.8,0017.43,0006.35,0005.11
2021-11-20 13:59:00,,0827.1,5.00,0.00,26.0,25.1,00.0,35.0,27.7,09.9,0004.4,0018.02,0006.35,0005.11
